Precipitable_Water
0.37 0.43 0.44 0.38 0.25 0.29 0.26 0.28 0.37 0.44 0.52 0.63 0.64 0.59 0.61 0.78 0.77 0.66 0.87 0.93 0.95 0.97 1.21 1.31 1.43 1.53 1.63 1.64 1.66 1.69 1.72 1.74 1.82 1.87 1.83 1.80 1.69 1.54 1.36 1.22 1.26 1.30 1.15 1.39 1.50 1.53 1.40 1.23 1.14
0.36 0.37 0.36 0.25 0.15 0.14 0.15 0.21 0.23 0.32 0.44 0.55 0.58 0.61 0.63 0.69 0.82 0.77 0.83 0.93 0.96 0.98 1.21 1.31 1.37 1.45 1.56 1.61 1.65 1.68 1.69 1.72 1.72 1.79 1.81 1.76 1.76 1.64 1.55 1.47 1.32 1.15 1.07 1.27 1.51 1.55 1.57 1.34 1.15
0.30 0.37 0.20 0.15 0.13 0.11 0.11 0.14 0.17 0.28 0.38 0.39 0.42 0.53 0.55 0.65 0.77 0.78 0.80 0.90 0.91 0.94 1.13 1.31 1.38 1.42 1.48 1.50 1.54 1.61 1.66 1.70 1.69 1.68 1.75 1.78 1.76 1.71 1.62 1.59 1.45 1.25 1.13 1.12 1.41 1.54 1.63 1.57 1.27
0.27 0.27 0.22 0.12 0.08 0.11 0.12 0.17 0.20 0.22 0.29 0.34 0.37 0.33 0.41 0.53 0.67 0.70 0.76 0.81 0.86 0.91 1.05 1.22 1.31 1.38 1.42 1.45 1.47 1.50 1.56 1.62 1.65 1.62 1.65 1.72 1.76 1.75 1.69 1.69 1.55 1.41 1.25 1.20 1.26 1.43 1.48 1.46 1.32
0.30 0.21 0.09 0.10 0.09 0.11 0.13 0.14 0.20 0.21 0.24 0.26 0.29 0.25 0.28 0.37 0.48 0.56 0.65 0.70 0.72 0.75 0.86 1.03 1.20 1.29 1.36 1.39 1.41 1.41 1.45 1.51 1.57 1.58 1.59 1.62 1.68 1.76 1.76 1.70 1.67 1.58 1.43 1.37 1.41 1.29 1.33 1.32 1.28
0.19 0.20 0.08 0.06 0.08 0.10 0.14 0.18 0.17 0.19 0.24 0.27 0.26 0.25 0.26 0.33 0.36 0.42 0.53 0.60 0.64 0.64 0.67 0.70 0.87 1.05 1.23 1.30 1.35 1.37 1.39 1.43 1.47 1.50 1.52 1.55 1.58 1.66 1.73 1.75 1.70 1.65 1.65 1.49 1.48 1.46 1.42 1.37 1.36
0.18 0.14 0.09 0.08 0.07 0.09 0.12 0.18 0.17 0.18 0.19 0.21 0.27 0.20 0.23 0.26 0.32 0.38 0.44 0.50 0.55 0.59 0.61 0.59 0.65 0.77 0.91 1.12 1.17 1.24 1.28 1.36 1.41 1.44 1.46 1.46 1.49 1.54 1.60 1.67 1.70 1.68 1.65 1.66 1.59 1.55 1.48 1.42 1.35
0.22 0.19 0.11 0.11 0.08 0.08 0.12 0.15 0.17 0.18 0.17 0.23 0.25 0.16 0.16 0.24 0.30 0.36 0.40 0.45 0.49 0.49 0.51 0.56 0.61 0.67 0.75 0.84 0.94 1.01 1.07 1.13 1.20 1.29 1.34 1.40 1.44 1.49 1.52 1.55 1.59 1.62 1.63 1.68 1.68 1.68 1.63 1.47 1.40
0.26 0.14 0.10 0.11 0.09 0.11 0.15 0.13 0.16 0.20 0.17 0.20 0.23 0.22 0.23 0.25 0.29 0.33 0.37 0.40 0.42 0.44 0.46 0.51 0.57 0.61 0.68 0.72 0.75 0.81 0.87 0.91 0.97 1.05 1.14 1.20 1.24 1.32 1.39 1.45 1.51 1.55 1.58 1.58 1.61 1.66 1.59 1.55 1.47
0.21 0.15 0.13 0.16 0.15 0.13 0.15 0.15 0.17 0.17 0.17 0.18 0.21 0.25 0.25 0.24 0.25 0.27 0.31 0.32 0.33 0.34 0.37 0.41 0.43 0.46 0.50 0.54 0.58 0.62 0.65 0.70 0.74 0.81 0.90 0.97 1.05 1.13 1.20 1.31 1.43 1.50 1.54 1.51 1.52 1.55 1.61 1.55 1.57
0.23 0.16 0.17 0.16 0.18 0.17 0.17 0.16 0.17 0.16 0.15 0.18 0.19 0.22 0.23 0.23 0.23 0.25 0.28 0.29 0.28 0.28 0.28 0.29 0.29 0.30 0.30 0.31 0.32 0.35 0.38 0.39 0.41 0.44 0.50 0.57 0.67 0.77 0.94 1.07 1.19 1.30 1.37 1.39 1.39 1.44 1.47 1.61 1.58
0.27 0.24 0.21 0.19 0.18 0.18 0.16 0.18 0.16 0.17 0.17 0.20 0.22 0.24 0.23 0.21 0.22 0.22 0.24 0.26 0.24 0.22 0.20 0.20 0.19 0.18 0.18 0.18 0.17 0.18 0.19 0.20 0.21 0.23 0.24 0.26 0.31 0.39 0.52 0.65 0.85 0.98 1.06 1.15 1.20 1.25 1.30 1.45 1.61
0.23 0.27 0.29 0.25 0.22 0.19 0.18 0.17 0.17 0.17 0.20 0.22 0.23 0.24 0.23 0.23 0.22 0.22 0.21 0.21 0.20 0.17 0.16 0.16 0.15 0.14 0.14 0.13 0.12 0.12 0.13 0.13 0.14 0.15 0.16 0.16 0.16 0.17 0.23 0.37 0.50 0.63 0.81 0.87 0.98 1.05 1.09 1.23 1.43
0.19 0.19 0.23 0.26 0.27 0.24 0.21 0.19 0.18 0.18 0.21 0.21 0.22 0.22 0.23 0.23 0.23 0.22 0.20 0.18 0.16 0.15 0.14 0.14 0.14 0.13 0.12 0.11 0.11 0.11 0.13 0.14 0.15 0.16 0.16 0.17 0.17 0.17 0.16 0.19 0.29 0.42 0.54 0.69 0.81 0.88 0.92 1.06 1.25
0.18 0.17 0.18 0.18 0.20 0.22 0.24 0.21 0.19 0.21 0.22 0.20 0.20 0.21 0.22 0.22 0.22 0.21 0.20 0.18 0.17 0.16 0.16 0.15 0.14 0.13 0.12 0.12 0.12 0.12 0.14 0.15 0.16 0.16 0.17 0.18 0.18 0.17 0.16 0.16 0.16 0.23 0.36 0.48 0.59 0.75 0.81 0.86 1.00
0.15 0.15 0.13 0.17 0.18 0.18 0.18 0.17 0.22 0.26 0.24 0.21 0.21 0.21 0.21 0.22 0.22 0.22 0.21 0.20 0.19 0.17 0.16 0.16 0.15 0.14 0.13 0.12 0.13 0.14 0.15 0.16 0.16 0.16 0.17 0.18 0.19 0.19 0.17 0.16 0.16 0.17 0.20 0.31 0.42 0.54 0.68 0.69 0.74
0.15 0.13 0.13 0.14 0.17 0.16 0.16 0.14 0.19 0.23 0.25 0.24 0.24 0.23 0.23 0.23 0.23 0.23 0.22 0.20 0.19 0.18 0.17 0.16 0.16 0.15 0.14 0.14 0.14 0.14 0.15 0.15 0.15 0.17 0.18 0.19 0.20 0.21 0.20 0.19 0.19 0.20 0.18 0.18 0.28 0.37 0.47 0.63 0.69
0.19 0.16 0.16 0.15 0.17 0.18 0.16 0.15 0.15 0.19 0.20 0.22 0.23 0.25 0.26 0.25 0.24 0.24 0.23 0.22 0.20 0.19 0.19 0.18 0.18 0.17 0.16 0.15 0.15 0.14 0.15 0.15 0.17 0.17 0.19 0.21 0.23 0.23 0.22 0.22 0.22 0.20 0.18 0.17 0.18 0.23 0.37 0.47 0.60
0.24 0.22 0.22 0.22 0.20 0.18 0.17 0.17 0.17 0.18 0.19 0.18 0.19 0.20 0.23 0.25 0.27 0.26 0.25 0.24 0.21 0.20 0.20 0.20 0.19 0.18 0.17 0.16 0.14 0.14 0.14 0.16 0.16 0.18 0.21 0.22 0.21 0.21 0.21 0.21 0.21 0.21 0.19 0.18 0.18 0.17 0.17 0.27 0.38
0.24 0.23 0.23 0.24 0.24 0.22 0.21 0.20 0.22 0.20 0.19 0.19 0.19 0.18 0.19 0.20 0.23 0.24 0.25 0.25 0.24 0.22 0.23 0.23 0.21 0.20 0.19 0.18 0.17 0.17 0.16 0.17 0.17 0.18 0.19 0.20 0.20 0.22 0.21 0.21 0.21 0.21 0.20 0.20 0.19 0.18 0.16 0.17 0.30
0.23 0.24 0.26 0.26 0.30 0.31 0.28 0.24 0.28 0.31 0.29 0.26 0.21 0.20 0.19 0.19 0.19 0.20 0.21 0.21 0.22 0.22 0.23 0.24 0.23 0.23 0.22 0.21 0.19 0.18 0.18 0.17 0.17 0.17 0.17 0.18 0.20 0.22 0.23 0.23 0.23 0.22 0.22 0.20 0.20 0.20 0.18 0.15 0.17
0.20 0.25 0.25 0.25 0.25 0.22 0.29 0.18 0.25 0.30 0.30 0.32 0.32 0.27 0.20 0.20 0.21 0.21 0.21 0.21 0.21 0.22 0.24 0.24 0.24 0.24 0.25 0.24 0.21 0.19 0.18 0.17 0.18 0.18 0.18 0.18 0.19 0.21 0.23 0.24 0.24 0.24 0.24 0.22 0.22 0.22 0.21 0.20 0.15
0.18 0.21 0.21 0.23 0.23 0.24 0.24 0.22 0.21 0.27 0.27 0.31 0.33 0.33 0.29 0.25 0.24 0.23 0.22 0.23 0.23 0.25 0.25 0.25 0.24 0.24 0.25 0.24 0.23 0.21 0.20 0.20 0.19 0.19 0.18 0.18 0.19 0.21 0.23 0.24 0.24 0.24 0.24 0.24 0.22 0.22 0.21 0.21 0.18
0.21 0.22 0.21 0.22 0.20 0.16 0.22 0.22 0.21 0.24 0.27 0.30 0.33 0.35 0.31 0.30 0.29 0.29 0.28 0.27 0.27 0.28 0.28 0.27 0.26 0.26 0.26 0.25 0.24 0.22 0.20 0.19 0.19 0.18 0.18 0.18 0.19 0.20 0.23 0.24 0.25 0.25 0.24 0.24 0.23 0.23 0.21 0.21 0.21
0.18 0.16 0.12 0.11 0.12 0.13 0.20 0.20 0.23 0.27 0.30 0.31 0.33 0.35 0.34 0.31 0.31 0.31 0.32 0.31 0.30 0.30 0.29 0.29 0.29 0.28 0.29 0.28 0.26 0.23 0.21 0.19 0.18 0.18 0.17 0.17 0.17 0.19 0.22 0.24 0.24 0.25 0.25 0.25 0.24 0.23 0.22 0.21 0.20
0.19 0.17 0.13 0.08 0.09 0.12 0.19 0.16 0.20 0.29 0.32 0.32 0.33 0.37 0.36 0.36 0.34 0.34 0.33 0.32 0.31 0.32 0.33 0.33 0.33 0.32 0.30 0.29 0.26 0.24 0.21 0.20 0.19 0.19 0.18 0.18 0.18 0.20 0.23 0.24 0.25 0.26 0.26 0.25 0.24 0.23 0.22 0.22 0.21
0.17 0.14 0.20 0.16 0.16 0.12 0.14 0.19 0.27 0.27 0.27 0.27 0.33 0.35 0.33 0.35 0.36 0.36 0.33 0.34 0.36 0.35 0.35 0.35 0.34 0.33 0.30 0.29 0.27 0.24 0.22 0.20 0.19 0.19 0.19 0.19 0.20 0.22 0.24 0.25 0.26 0.26 0.26 0.26 0.25 0.24 0.23 0.23 0.22
0.19 0.20 0.15 0.17 0.10 0.09 0.12 0.16 0.18 0.26 0.27 0.31 0.29 0.31 0.32 0.31 0.28 0.29 0.31 0.33 0.35 0.36 0.36 0.36 0.35 0.32 0.30 0.30 0.29 0.26 0.23 0.22 0.21 0.20 0.18 0.19 0.21 0.23 0.25 0.26 0.27 0.26 0.26 0.26 0.25 0.25 0.25 0.24 0.24
0.18 0.17 0.18 0.18 0.16 0.11 0.11 0.15 0.25 0.25 0.29 0.26 0.28 0.28 0.26 0.26 0.28 0.29 0.29 0.30 0.31 0.33 0.33 0.33 0.33 0.30 0.28 0.29 0.28 0.26 0.24 0.21 0.20 0.19 0.18 0.19 0.20 0.23 0.25 0.27 0.27 0.27 0.27 0.28 0.27 0.27 0.26 0.24 0.25
0.23 0.21 0.22 0.16 0.14 0.16 0.15 0.14 0.22 0.22 0.25 0.25 0.23 0.25 0.26 0.29 0.29 0.28 0.29 0.32 0.33 0.34 0.33 0.32 0.32 0.29 0.29 0.29 0.28 0.26 0.23 0.21 0.19 0.17 0.17 0.18 0.19 0.23 0.27 0.28 0.28 0.28 0.29 0.29 0.28 0.28 0.28 0.26 0.25
Wind_Speed
18 18 18 18 17 17 19 20 17 19 20 19 20 20 19 17 18 16 14 17 18 18 17 16 16 15 13 13 12 11 9 8 7 6 6 5 5 4 4 4 4 3 2 3 5 5 4 4 4
19 19 18 18 18 18 18 20 20 20 19 19 18 18 17 19 20 19 16 17 18 17 17 16 17 16 15 14 14 13 12 10 9 8 7 7 6 5 5 5 5 5 4 4 5 5 4 4 4
20 20 19 19 20 21 18 18 20 19 20 19 19 18 19 19 19 19 18 19 17 17 17 18 18 17 16 15 15 14 13 13 12 10 9 8 7 7 6 6 5 5 5 6 6 6 5 4 3
21 21 20 21 24 21 20 17 18 20 19 18 19 18 19 19 21 20 19 19 19 18 17 17 18 19 18 16 16 15 15 14 13 12 12 10 9 8 8 7 7 6 6 7 8 7 6 5 5
22 21 22 23 24 21 19 22 21 19 19 20 21 21 19 21 22 22 21 20 20 19 18 17 17 18 18 18 17 16 15 15 15 14 13 13 12 11 10 8 8 8 8 8 8 9 8 6 6
23 23 21 24 23 22 20 20 20 20 19 20 18 18 19 21 23 23 22 21 21 20 19 18 18 18 18 18 18 17 17 16 16 16 15 14 13 13 12 12 10 9 9 10 10 10 10 9 8
25 24 26 23 24 22 23 21 21 21 20 20 20 18 19 21 22 22 22 21 21 20 20 19 19 18 18 18 18 18 18 17 17 17 17 16 15 15 14 13 12 12 10 10 12 12 12 11 10
26 25 26 26 24 24 24 22 22 21 21 21 20 20 21 24 23 22 22 21 21 20 19 20 20 19 19 19 18 18 18 18 17 17 17 18 18 17 17 16 15 14 14 13 13 14 13 13 13
28 26 28 27 26 25 24 24 23 21 20 21 21 20 20 24 23 22 22 21 21 20 20 19 19 20 20 20 20 20 19 19 19 19 18 18 18 18 19 19 19 18 16 16 15 16 17 15 15
28 29 31 27 26 26 26 25 25 24 23 22 21 19 20 23 23 23 23 22 21 21 20 20 20 19 20 20 20 20 20 21 20 21 21 21 20 20 20 20 20 20 19 18 19 18 19 19 17
29 30 30 28 27 27 27 27 27 26 27 26 24 23 23 24 24 24 24 23 22 21 20 20 20 19 20 20 20 21 21 21 21 21 22 22 22 22 22 22 22 22 22 22 21 21 20 21 21
27 28 29 28 28 27 28 28 28 30 27 26 28 27 25 26 26 26 25 25 24 23 21 21 20 20 20 20 20 21 21 22 22 22 22 23 23 23 23 23 23 23 24 23 22 22 22 21 22
26 27 27 28 28 28 29 29 30 31 29 28 28 29 28 27 27 27 27 26 26 25 24 23 22 22 21 21 21 21 21 21 21 22 22 22 22 23 23 23 24 24 24 24 23 22 22 22 23
22 24 26 27 28 29 30 31 31 32 31 30 31 30 30 30 29 29 29 28 28 27 26 25 24 23 23 23 22 23 22 22 22 22 22 23 23 24 24 25 25 25 25 25 25 25 24 24 23
23 23 24 26 28 29 30 33 36 34 32 32 33 33 32 32 31 31 31 30 30 29 28 27 26 25 25 25 24 24 24 24 24 24 24 24 24 25 25 26 26 27 27 27 27 27 27 26 26
20 22 24 25 26 27 28 32 29 35 35 35 35 35 34 34 34 33 33 32 32 31 30 28 27 27 26 26 26 26 26 26 26 26 26 26 27 27 27 28 28 29 29 29 29 29 29 29 28
20 22 23 23 26 25 28 29 28 32 34 35 36 35 35 35 35 35 34 34 33 32 31 30 29 28 28 27 27 27 27 28 28 28 28 28 28 28 29 29 29 30 30 30 31 31 31 31 31
17 20 22 23 23 26 28 32 30 30 33 35 36 36 37 36 36 36 36 35 34 33 32 31 30 29 29 29 29 29 29 29 29 29 29 30 30 30 30 30 30 31 31 32 32 33 33 34 34
15 16 19 20 21 23 27 31 32 32 33 35 36 36 36 37 36 37 37 36 35 34 34 33 32 31 30 30 30 30 30 30 30 30 30 30 31 31 32 32 32 32 33 33 34 35 35 36 36
15 16 19 19 20 21 24 30 31 33 36 37 37 37 37 36 36 37 37 36 36 35 34 33 32 32 31 31 31 31 31 31 31 31 31 32 32 33 33 33 33 33 34 34 35 36 36 37 37
15 16 17 18 20 22 23 28 29 31 36 36 38 38 38 38 36 36 36 36 36 35 34 34 33 32 32 31 31 31 31 32 32 32 32 33 34 34 34 34 34 35 35 36 36 37 38 39 39
14 14 15 16 16 19 17 22 21 21 25 31 36 36 37 36 36 36 36 36 36 35 34 33 33 32 32 31 31 31 31 32 32 33 34 35 35 35 35 35 36 36 36 37 37 38 39 40 41
11 12 13 14 15 16 18 17 20 17 19 25 27 35 36 35 35 34 35 35 35 35 34 34 33 32 32 31 31 31 32 32 33 33 34 34 34 35 35 36 36 37 38 38 39 40 41 42 43
9 9 11 12 13 14 16 15 18 16 16 19 21 26 32 34 33 33 33 32 33 34 34 33 33 32 32 31 31 31 32 33 34 34 34 34 34 35 36 37 37 38 39 40 41 42 42 43 45
9 9 10 10 10 13 12 12 18 17 16 18 19 21 26 30 30 31 31 31 31 32 33 32 32 32 32 32 32 32 33 34 34 34 34 34 35 35 36 37 38 39 40 41 42 43 44 45 46
11 10 10 11 9 11 10 14 12 13 14 14 15 18 20 24 27 28 28 29 30 31 31 31 32 32 32 32 33 33 34 34 34 34 34 35 35 36 37 38 39 40 42 43 44 45 46 48 49
13 12 12 11 12 10 11 13 12 11 10 10 11 13 18 21 23 24 26 27 28 29 30 30 31 31 31 31 32 32 32 32 32 33 34 34 35 36 37 38 39 41 42 44 45 47 49 50 52
14 13 11 12 11 12 11 10 9 8 9 8 8 12 14 17 20 21 22 23 23 25 26 27 28 29 29 30 30 30 31 31 32 32 33 34 34 36 37 38 39 41 42 44 46 49 51 54 56
15 16 14 14 14 12 11 11 10 11 13 12 10 11 13 15 17 18 19 21 22 24 26 27 27 28 28 28 28 29 29 30 31 31 32 33 34 35 36 38 39 40 42 45 48 52 55 57 59
18 17 16 14 15 13 13 15 11 10 9 11 12 13 15 16 18 19 21 23 25 27 28 29 29 29 29 28 28 29 29 29 30 31 31 32 34 35 36 37 39 41 43 46 49 53 56 60 62
Wind_Direction
230 225 218 214 218 225 228 230 223 221 221 223 224 226 221 221 219 219 216 210 207 206 208 210 211 210 208 207 206 205 203 200 197 195 193 190 187 181 177 184 185 176 164 166 164 159 143 128 117
226 220 218 222 225 225 232 228 222 221 218 211 217 222 225 225 223 220 216 208 209 207 212 214 213 212 212 211 211 211 213 212 211 213 212 207 206 203 198 198 200 202 198 185 183 176 167 156 139
223 220 220 225 229 229 233 228 221 222 212 220 220 225 225 226 220 217 214 209 210 213 216 219 218 218 218 217 217 218 219 220 221 222 220 218 217 214 216 213 211 213 215 207 199 193 191 181 179
222 224 230 230 233 237 231 228 223 219 224 223 219 223 228 229 220 217 212 214 215 216 218 219 220 221 221 220 221 221 222 223 224 226 226 225 224 225 222 223 225 225 223 216 214 210 207 207 205
222 227 231 235 237 241 238 232 223 222 222 224 225 225 231 228 221 218 217 216 216 218 219 222 221 221 223 223 223 225 225 226 227 228 228 228 228 227 227 226 228 231 231 226 222 223 221 221 217
226 227 233 234 236 236 235 227 222 225 225 222 226 226 232 223 221 220 220 220 220 220 222 224 224 223 224 224 225 227 229 229 229 230 230 229 230 231 231 231 232 233 235 232 230 230 230 229 225
227 229 233 235 234 233 231 226 226 224 224 230 224 230 230 224 220 219 219 220 221 223 224 226 225 225 224 226 226 229 230 231 233 232 233 233 233 234 234 233 235 237 240 241 235 233 234 235 233
229 232 233 236 232 237 229 226 229 228 229 228 231 231 232 224 218 216 218 219 221 223 225 227 227 226 228 229 230 229 231 232 233 234 235 236 237 236 237 237 239 240 241 245 243 238 238 238 238
230 234 236 237 232 234 230 230 232 231 228 232 235 233 232 213 213 215 218 219 222 223 225 226 227 229 230 231 233 234 235 235 235 236 237 237 239 241 241 242 242 243 245 246 247 244 241 242 241
230 233 235 238 237 236 233 233 228 230 230 234 232 233 218 214 215 217 219 221 222 224 226 228 228 229 230 231 233 235 237 239 240 240 242 243 244 244 245 245 245 244 245 250 248 250 246 243 245
232 235 236 239 240 238 232 234 234 230 235 233 231 223 219 218 219 219 221 222 223 224 226 228 230 231 233 234 236 237 238 240 241 243 245 246 247 248 248 248 248 248 249 251 251 250 249 245 244
234 237 238 240 242 238 234 233 236 234 237 236 228 224 223 222 222 222 223 224 225 226 228 229 231 233 235 236 238 239 240 242 244 245 246 247 248 249 249 250 251 251 250 251 252 250 250 248 247
237 237 240 240 241 240 239 238 239 239 240 232 227 227 226 226 225 225 225 226 228 229 231 233 235 237 238 239 241 242 242 244 245 246 247 248 248 248 249 250 250 251 252 252 250 251 250 249 250
239 238 240 242 242 241 239 240 240 239 236 232 229 230 230 229 228 228 228 228 229 231 233 235 237 239 241 242 243 244 245 246 247 248 249 250 250 251 251 251 252 252 253 253 253 253 251 251 253
237 242 244 242 241 243 242 243 241 238 235 232 232 232 232 231 230 230 230 230 230 232 234 236 239 241 243 245 246 246 247 248 249 250 251 252 252 253 253 253 253 254 255 254 253 253 254 254 253
243 244 243 244 240 243 239 243 245 237 234 234 234 234 233 233 232 232 231 231 232 233 235 238 240 243 245 247 247 248 249 250 251 252 253 254 254 255 255 255 255 256 256 255 255 254 254 254 254
250 245 243 246 240 242 240 245 247 238 236 235 235 235 234 234 234 233 231 232 233 234 236 238 241 243 246 248 249 249 250 252 253 254 254 255 256 256 257 256 257 257 256 256 256 256 255 255 255
246 247 248 247 246 244 243 246 247 241 237 236 236 236 235 234 234 232 232 232 233 235 237 238 241 244 247 249 250 251 251 253 253 254 255 256 257 257 257 257 257 258 258 257 257 257 256 255 254
245 246 248 251 251 250 248 249 247 243 241 239 238 237 236 235 234 233 232 233 234 236 237 239 242 245 248 250 251 251 252 253 254 255 256 256 258 258 259 258 259 259 258 258 258 258 258 257 257
254 254 253 255 253 252 256 253 250 244 243 240 237 237 235 234 232 232 232 233 234 236 238 241 243 246 248 250 251 252 253 253 254 255 256 257 258 259 259 259 259 259 259 259 259 259 258 257 257
256 254 258 257 261 257 264 258 252 249 244 241 239 238 236 233 231 231 231 233 233 235 238 241 243 246 248 251 252 253 253 254 255 257 258 259 260 260 260 260 259 259 260 260 260 259 259 258 257
258 260 260 261 259 255 256 260 258 253 250 244 239 236 233 232 230 230 231 233 234 236 238 241 243 246 248 250 252 253 253 255 256 258 259 260 261 260 260 260 260 260 260 261 261 260 259 258 257
263 265 264 261 261 265 261 258 258 253 256 248 242 235 231 229 228 228 229 232 234 235 238 241 243 246 248 250 252 253 255 256 257 258 261 261 260 260 260 260 261 261 262 262 261 261 260 259 257
270 272 273 269 263 264 257 247 258 254 250 253 247 235 227 226 226 227 229 232 234 236 238 241 243 245 248 251 253 255 256 258 260 261 261 261 261 261 262 262 262 263 264 264 263 262 261 260 258
274 279 284 285 269 255 257 251 254 260 258 254 246 233 224 223 224 225 227 230 233 235 238 240 242 246 249 252 255 257 258 260 260 260 261 261 262 262 263 264 264 265 266 265 265 264 262 261 260
262 256 256 262 267 269 262 251 254 258 267 261 242 228 220 219 221 224 226 230 233 236 238 241 243 247 251 254 257 258 260 260 260 260 261 262 263 264 265 266 266 267 267 267 266 265 264 263 261
261 263 257 262 268 275 266 266 263 265 269 262 239 218 217 219 220 224 227 230 234 236 240 243 247 250 253 256 257 259 260 260 261 262 263 264 265 265 266 267 268 269 269 269 269 268 267 266 264
257 256 262 264 263 265 269 265 256 270 261 245 225 216 216 218 220 223 225 228 233 236 240 244 247 250 253 255 257 259 260 261 262 263 264 265 266 267 269 270 271 272 272 272 271 271 270 268 267
260 261 259 254 250 248 257 260 258 263 263 243 236 228 223 221 219 222 228 235 240 244 246 247 249 251 254 256 258 260 261 263 264 265 266 267 269 270 271 272 273 274 276 276 276 275 273 271 269
256 252 247 247 250 248 248 257 264 263 266 235 234 237 236 233 231 237 244 248 250 252 251 251 252 253 255 258 260 261 263 265 266 266 268 269 271 273 274 275 276 278 279 280 281 279 276 274 271